Regional Weather Roundup
Issued by NWS

Home | Current Version | Previous Version | Graphics & Text | Print | Product List | Glossary On
Versions: 1 2 3 4 5 6 7 8 9 10 11 12 13 14 15 16 17 18 19 20 21 22 23 24 25 26 27 28 29 30 31 32 33 34 35 36 37 38 39 40 41 42 43 44 45 46 47 48 49 50
000
ASUS43 KDTX 050901
RWRMI
MICHIGAN HOURLY REGIONAL WEATHER ROUNDUP
NATIONAL WEATHER SERVICE DETROIT/PONTIAC MI
500 AM EDT WED AUG 05 2015

NOTE: "FAIR" INDICATES FEW OR NO CLOUDS BELOW 12,000 FEET WITH NO
SIGNIFICANT WEATHER AND/OR OBSTRUCTION TO VISIBILITY.

MIZ047>049-052>055-059>063-066>070-074>076-081>083-051000-
SOUTHEAST LOWER MICHIGAN

CITY           SKY/WX    TMP DP  RH WIND       PRES   REMARKS
ADRIAN         CLEAR     56  53  90 CALM      30.03S
ALMA           CLOUDY    54  54  99 CALM      30.04R
ANN ARBOR      CLEAR     54  52  93 SW3       30.02R
BAD AXE        CLEAR     58  55  89 N6        30.01S
CARO           PTCLDY    55  54  98 W3        30.02R
DETROIT CITY   CLEAR     63  54  72 NW3       30.01R
DETROIT        CLEAR     60  54  80 W5        30.02R
FLINT          CLEAR     57  53  86 CALM      30.03R
GROSSE ILE     CLEAR     63  57  82 W5        30.00R
HILLSDALE      CLEAR     54  54 100 CALM      30.04R
HOWELL         CLEAR     54  52  94 CALM      30.03R

CITY           SKY/WX    TMP DP  RH WIND       PRES   REMARKS
JACKSON        CLEAR     55  53  93 CALM      30.04R
LAMBERTVILLE   CLEAR     57  54  88 CALM      30.02S
LANSING        PTCLDY    57  53  86 CALM      30.04R
LAPEER         FAIR      55  55  98 CALM      30.02R
MASON          PTCLDY    53  51  95 CALM      30.03S
MONROE         CLEAR     57  55  92 CALM      30.01S
MT. CLEMENS    CLEAR     61  56  84 W5        29.99R
PONTIAC        CLEAR     60  55  83 NW7       30.01R
PORT HOPE        N/A     63  55  75 NW10G17   29.99R
PORT HURON     MOCLDY    55  55 100 CALM      30.00R FOG
TRI CITIES     MOCLDY    60  54  80 NW8       30.04R
MIDLAND        MOCLDY    54  52  95 CALM      30.03R
TROY           CLEAR     63  55  74 NW6       30.02S
SAGINAW HB     PTCLDY    57  55  94 NW5       30.02R
$$
MIZ043>046-050>051-056>058-064>065-071>073-077>080-051000-
SOUTHWEST LOWER MICHIGAN

CITY           SKY/WX    TMP DP  RH WIND       PRES   REMARKS
BATTLE CREEK     N/A    N/A N/A N/A MISG      30.04S
BENTON HARBOR  CLEAR     56  54  93 CALM      30.02S
BIG RAPIDS     CLEAR     53  51  96 CALM      30.04S
COLDWATER      CLEAR     55  54  97 CALM      30.03S
FREMONT        FAIR      54  54 100 CALM      30.03S
HOLLAND        CLEAR     57  54  89 CALM      30.04S
GRAND RAPIDS   MOCLDY    60  56  86 CALM      30.04R
IONIA          CLOUDY    58  56  91 NW3       30.03R
KALAMAZOO      CLEAR     56  53  90 CALM      30.04S
LUDINGTON      CLEAR     56  54  91 CALM      30.05R
MARSHALL       CLEAR     54  53  96 CALM      30.03S
MOUNT PLEASANT MOCLDY    56  54  91 CALM      30.03R
MUSKEGON       CLEAR     58  55  90 CALM      30.03S
SOUTH HAVEN    CLEAR     55  54  94 CALM      30.02S
$$
MIZ016>042-051000-
NORTHERN LOWER MICHIGAN

CITY           SKY/WX    TMP DP  RH WIND       PRES   REMARKS
ALPENA         CLEAR     53  49  86 W6        30.02R
BEAVER ISLAND  PTCLDY    58  53  82 NW6       30.05R
BELLAIRE       CLEAR     50  48  94 CALM      30.05S
CADILLAC       FOG       47  46  96 CALM      30.05S VSB 1
CHARLEVOIX     MOCLDY    59  51  75 NW7       30.07S
FRANKFORT      CLEAR     52  51  95 CALM      30.05S
GAYLORD        CLEAR     53  52  96 CALM      30.04S
GRAYLING       CLEAR     51  49  95 W6        30.05S
HARBOR SPRINGS CLEAR     54  50  87 W6        30.04S
HOUGHTON LAKE  CLEAR     53  51  93 N6        30.05R
MANISTEE       CLEAR     52  48  87 CALM      30.05S
OSCODA         CLEAR     51  50  97 CALM      30.02R
PELLSTON       CLEAR     44  43  96 CALM      30.04R
ROGERS CITY    CLEAR     53  50  89 W5        30.02S
TRAVERSE CITY  CLEAR     59  52  77 N5        30.03F
$$
MIZ007>008-015-051000-
EASTERN UPPER MICHIGAN

CITY           SKY/WX    TMP DP  RH WIND       PRES   REMARKS
KINROSS        PTCLDY    50  50 100 NW9       30.02S
MACKINAC ISLAN CLEAR     54  49  85 NW9       30.02S
NEWBERRY       CLEAR     48  47  99 NW3       30.04R
S. S. MARIE    CLEAR     53  50  89 NW6       30.01S
MUNISING         N/A     51  47  86 S6        30.05S
$$
MIZ004>006-011>014-085-051000-
CENTRAL UPPER MICHIGAN

CITY           SKY/WX    TMP DP  RH WIND       PRES   REMARKS
MANISTIQUE     CLEAR     50  48  93 NW6       30.04S
ESCANABA       CLEAR     48  46  93 NW5       30.06R
MENOMINEE      MOCLDY    54  48  82 N3        30.06R
SAWYER-GWINN   CLEAR     45  43  93 CALM      30.07R
$$
MIZ001>003-009>011-084-051000-
WESTERN UPPER MICHIGAN

CITY           SKY/WX    TMP DP  RH WIND       PRES   REMARKS
IRON MOUNTAIN  CLEAR     45  43  93 N3        30.07S FOG
HOUGHTON       CLEAR     51  49  92 NW8       30.06S
COPPER HARBOR    N/A     56  52  86 W6        30.05S
IRONWOOD       CLEAR     45  45 100 CALM      30.06S
$$

ABBREVIATIONS USED IN REMARKS
   TC - TEMPERATURE IN CELSIUS
  WCI - WIND CHILL INDEX
   HX - HEAT INDEX
  VSB - VISIBILITY



USA.gov is the U.S. government's official web portal to all federal, state and local government web resources and services.